TimeHST,TemperatureF,Dew PointF,Humidity,Sea Level PressureIn,VisibilityMPH,Wind Direction,Wind SpeedMPH,Gust SpeedMPH,PrecipitationIn,Events,Conditions,WindDirDegrees,DateUTC
12:53 AM,73.0,66.9,81,30.09,10.0,Variable,3.5,-,N/A,,Mostly Cloudy,0,2013-05-13 10:53:00
1:05 AM,71.6,66.2,83,30.07,10.0,ENE,3.5,-,N/A,,Scattered Clouds,60,2013-05-13 11:05:00
1:53 AM,71.1,66.9,87,30.08,10.0,ENE,3.5,-,N/A,,Scattered Clouds,60,2013-05-13 11:53:00
2:12 AM,71.6,66.2,83,30.06,10.0,Calm,Calm,-,N/A,,Overcast,0,2013-05-13 12:12:00
2:44 AM,71.6,66.2,83,30.05,10.0,Variable,4.6,-,N/A,,Mostly Cloudy,0,2013-05-13 12:44:00
2:51 AM,71.6,66.2,83,30.05,10.0,Variable,3.5,-,N/A,,Mostly Cloudy,0,2013-05-13 12:51:00
2:53 AM,72.0,66.9,84,30.06,10.0,Variable,4.6,-,N/A,,Mostly Cloudy,0,2013-05-13 12:53:00
3:11 AM,71.6,68.0,88,30.04,10.0,Variable,3.5,-,N/A,,Overcast,0,2013-05-13 13:11:00
3:53 AM,71.1,68.0,90,30.06,10.0,Calm,Calm,-,N/A,,Overcast,0,2013-05-13 13:53:00
4:53 AM,71.1,69.1,93,30.07,10.0,Variable,3.5,-,0.01,Rain,Light Rain,0,2013-05-13 14:53:00
5:53 AM,-9999,-9999,N/A,30.08,10.0,Variable,3.5,-,0.00,,Overcast,0,2013-05-13 15:53:00
6:53 AM,-9999,-9999,N/A,30.09,10.0,Variable,4.6,-,N/A,,Overcast,0,2013-05-13 16:53:00
7:53 AM,73.9,70.0,87,30.10,10.0,Calm,Calm,-,N/A,,Overcast,0,2013-05-13 17:53:00
8:29 AM,75.2,69.8,83,30.08,10.0,ENE,6.9,-,N/A,,Mostly Cloudy,60,2013-05-13 18:29:00
8:53 AM,75.9,68.0,76,30.11,10.0,ENE,10.4,19.6,N/A,,Overcast,70,2013-05-13 18:53:00
9:24 AM,78.8,68.0,69,30.09,10.0,East,12.7,21.9,N/A,,Mostly Cloudy,80,2013-05-13 19:24:00
10:53 AM,80.1,66.9,64,30.11,10.0,East,8.1,23.0,N/A,,Overcast,80,2013-05-13 20:53:00
11:53 AM,79.0,66.9,66,30.11,10.0,East,8.1,20.7,N/A,,Overcast,90,2013-05-13 21:53:00
12:53 PM,80.1,66.9,64,30.09,10.0,East,8.1,-,N/A,,Overcast,90,2013-05-13 22:53:00
1:53 PM,78.1,66.0,66,30.08,10.0,East,10.4,19.6,N/A,,Overcast,90,2013-05-13 23:53:00
2:53 PM,81.0,66.9,62,30.06,10.0,ENE,10.4,20.7,N/A,,Mostly Cloudy,60,2013-05-14 00:53:00
3:53 PM,78.1,66.0,66,30.06,10.0,East,6.9,17.3,N/A,,Overcast,80,2013-05-14 01:53:00
4:53 PM,77.0,66.9,71,30.05,10.0,ENE,9.2,-,N/A,,Overcast,70,2013-05-14 02:53:00
5:53 PM,75.9,66.9,74,30.06,10.0,Variable,5.8,-,N/A,,Mostly Cloudy,0,2013-05-14 03:53:00
6:53 PM,75.0,66.9,76,30.06,10.0,Variable,6.9,-,N/A,,Clear,0,2013-05-14 04:53:00
7:08 PM,73.4,66.2,78,30.05,10.0,ENE,8.1,-,N/A,,Partly Cloudy,60,2013-05-14 05:08:00
7:53 PM,73.0,66.9,81,30.08,10.0,ENE,4.6,-,N/A,,Clear,70,2013-05-14 05:53:00
8:53 PM,73.0,66.0,79,30.10,10.0,ENE,4.6,-,N/A,,Scattered Clouds,70,2013-05-14 06:53:00
9:53 PM,72.0,66.9,84,30.11,10.0,Variable,4.6,-,N/A,,Clear,0,2013-05-14 07:53:00
10:53 PM,73.0,66.9,81,30.12,10.0,ENE,3.5,-,N/A,,Mostly Cloudy,60,2013-05-14 08:53:00
11:53 PM,72.0,66.9,84,30.11,10.0,ENE,4.6,-,N/A,,Clear,70,2013-05-14 09:53:00